Time,TemperatureF,DewpointF,PressureIn,WindDirection,WindDirectionDegrees,WindSpeedMPH,WindSpeedGustMPH,Humidity,HourlyPrecipIn,Conditions,Clouds,dailyrainin,SoftwareType,DateUTC
2015-03-02 00:02:00,31.4,31.0,30.15,SSW,195,5.0,7.0,99,0.00,,,0.00,weatherlink.com 1.10,2015-03-02 05:02:00,
2015-03-02 00:17:00,31.6,31.0,30.17,SSW,195,3.0,5.0,99,0.00,,,0.00,weatherlink.com 1.10,2015-03-02 05:17:00,
2015-03-02 00:32:00,31.6,31.0,30.16,SSW,195,3.0,4.0,99,0.00,,,0.00,weatherlink.com 1.10,2015-03-02 05:32:00,
2015-03-02 00:47:00,31.6,31.0,30.16,SSW,195,2.0,3.0,99,0.00,,,0.00,weatherlink.com 1.10,2015-03-02 05:47:00,
2015-03-02 01:17:00,31.8,32.0,30.16,SSW,194,3.0,3.0,99,0.00,,,0.00,weatherlink.com 1.10,2015-03-02 06:17:00,
2015-03-02 01:32:00,31.9,32.0,30.16,SSW,194,3.0,4.0,99,0.00,,,0.00,weatherlink.com 1.10,2015-03-02 06:32:00,
2015-03-02 01:47:00,31.8,32.0,30.15,SSW,195,3.0,4.0,99,0.00,,,0.00,weatherlink.com 1.10,2015-03-02 06:47:00,
2015-03-02 02:02:00,31.8,32.0,30.14,SSW,195,4.0,5.0,99,0.00,,,0.00,weatherlink.com 1.10,2015-03-02 07:02:00,
2015-03-02 02:17:00,31.8,32.0,30.12,SSW,194,3.0,5.0,99,0.00,,,0.00,weatherlink.com 1.10,2015-03-02 07:17:00,
2015-03-02 02:32:00,31.8,32.0,30.11,SSW,194,3.0,3.0,99,0.00,,,0.00,weatherlink.com 1.10,2015-03-02 07:32:00,
2015-03-02 02:47:00,31.9,32.0,30.12,SSW,195,2.0,4.0,99,0.00,,,0.00,weatherlink.com 1.10,2015-03-02 07:47:00,
2015-03-02 03:02:00,31.9,32.0,30.10,SSW,195,4.0,4.0,99,0.00,,,0.00,weatherlink.com 1.10,2015-03-02 08:02:00,
2015-03-02 03:17:00,31.9,32.0,30.09,SSW,195,3.0,5.0,99,0.00,,,0.00,weatherlink.com 1.10,2015-03-02 08:17:00,
2015-03-02 03:32:00,31.9,32.0,30.08,SSW,195,4.0,4.0,99,0.00,,,0.00,weatherlink.com 1.10,2015-03-02 08:32:00,
2015-03-02 03:47:00,31.9,32.0,30.08,SSW,194,3.0,4.0,100,0.00,,,0.00,weatherlink.com 1.10,2015-03-02 08:47:00,
2015-03-02 04:02:00,31.9,32.0,30.07,SSW,195,2.0,3.0,100,0.00,,,0.00,weatherlink.com 1.10,2015-03-02 09:02:00,
2015-03-02 04:17:00,31.9,32.0,30.07,SSW,194,0.0,2.0,100,0.00,,,0.00,weatherlink.com 1.10,2015-03-02 09:17:00,
2015-03-02 04:32:00,31.8,32.0,30.09,SSW,195,2.0,3.0,100,0.00,,,0.00,weatherlink.com 1.10,2015-03-02 09:32:00,
2015-03-02 04:47:00,31.8,32.0,30.09,SSW,195,2.0,2.0,100,0.00,,,0.00,weatherlink.com 1.10,2015-03-02 09:47:00,
2015-03-02 05:02:00,31.8,32.0,30.08,SSW,194,1.0,3.0,100,0.00,,,0.00,weatherlink.com 1.10,2015-03-02 10:02:00,
2015-03-02 05:17:00,31.8,32.0,30.08,SSW,195,2.0,2.0,100,0.00,,,0.00,weatherlink.com 1.10,2015-03-02 10:17:00,
2015-03-02 05:32:00,31.8,32.0,30.10,SSW,194,3.0,4.0,100,0.00,,,0.00,weatherlink.com 1.10,2015-03-02 10:32:00,
2015-03-02 05:47:00,31.8,32.0,30.10,SSW,195,2.0,4.0,100,0.00,,,0.00,weatherlink.com 1.10,2015-03-02 10:47:00,
2015-03-02 06:02:00,31.7,32.0,30.09,SSW,194,2.0,3.0,100,0.00,,,0.00,weatherlink.com 1.10,2015-03-02 11:02:00,
2015-03-02 06:17:00,31.7,32.0,30.10,SSW,194,2.0,2.0,100,0.00,,,0.00,weatherlink.com 1.10,2015-03-02 11:17:00,
2015-03-02 06:32:00,31.7,32.0,30.11,SSW,195,2.0,2.0,100,0.00,,,0.00,weatherlink.com 1.10,2015-03-02 11:32:00,
2015-03-02 06:47:00,31.8,32.0,30.11,SSW,194,2.0,2.0,100,0.00,,,0.00,weatherlink.com 1.10,2015-03-02 11:47:00,
2015-03-02 07:02:00,31.8,32.0,30.11,SSW,194,0.0,1.0,100,0.00,,,0.00,weatherlink.com 1.10,2015-03-02 12:02:00,
2015-03-02 07:17:00,31.8,32.0,30.12,SSW,195,0.0,0.0,100,0.00,,,0.00,weatherlink.com 1.10,2015-03-02 12:17:00,
2015-03-02 07:32:00,31.8,32.0,30.12,SSW,195,0.0,0.0,100,0.00,,,0.00,weatherlink.com 1.10,2015-03-02 12:32:00,
2015-03-02 07:47:00,31.8,32.0,30.14,SSW,194,1.0,2.0,100,0.00,,,0.00,weatherlink.com 1.10,2015-03-02 12:47:00,
2015-03-02 08:03:00,31.9,32.0,30.16,SSW,194,0.0,1.0,100,0.00,,,0.00,weatherlink.com 1.10,2015-03-02 13:03:00,
2015-03-02 08:18:00,32.0,32.0,30.16,SSW,195,1.0,2.0,100,0.00,,,0.00,weatherlink.com 1.10,2015-03-02 13:18:00,
2015-03-02 08:33:00,32.1,32.0,30.17,SSW,195,2.0,2.0,100,0.00,,,0.00,weatherlink.com 1.10,2015-03-02 13:33:00,
2015-03-02 08:48:00,32.3,32.0,30.18,SSW,195,0.0,1.0,100,0.00,,,0.00,weatherlink.com 1.10,2015-03-02 13:48:00,
2015-03-02 09:18:00,32.9,33.0,30.20,NW,318,5.0,7.0,100,0.00,,,0.00,weatherlink.com 1.10,2015-03-02 14:18:00,
2015-03-02 09:33:00,33.6,34.0,30.22,NW,315,10.0,11.0,100,0.00,,,0.00,weatherlink.com 1.10,2015-03-02 14:33:00,
2015-03-02 09:48:00,34.5,35.0,30.23,NW,306,12.0,14.0,100,0.00,,,0.00,weatherlink.com 1.10,2015-03-02 14:48:00,
2015-03-02 10:03:00,35.2,35.0,30.24,WNW,300,13.0,19.0,100,0.00,,,0.00,weatherlink.com 1.10,2015-03-02 15:03:00,
2015-03-02 10:18:00,35.6,36.0,30.24,WNW,293,10.0,15.0,100,0.00,,,0.00,weatherlink.com 1.10,2015-03-02 15:18:00,
2015-03-02 10:33:00,35.6,35.0,30.23,WNW,298,19.0,21.0,98,0.00,,,0.00,weatherlink.com 1.10,2015-03-02 15:33:00,
2015-03-02 10:48:00,35.9,34.0,30.23,WNW,297,14.0,24.0,94,0.00,,,0.00,weatherlink.com 1.10,2015-03-02 15:48:00,
2015-03-02 11:18:00,38.4,29.0,30.24,WNW,298,19.0,24.0,69,0.00,,,0.00,weatherlink.com 1.10,2015-03-02 16:18:00,
2015-03-02 11:33:00,38.7,27.0,30.25,WNW,302,17.0,26.0,64,0.00,,,0.00,weatherlink.com 1.10,2015-03-02 16:33:00,
2015-03-02 11:48:00,38.7,27.0,30.25,WNW,298,13.0,24.0,64,0.00,,,0.00,weatherlink.com 1.10,2015-03-02 16:48:00,
2015-03-02 12:03:00,38.7,26.0,30.25,WNW,302,21.0,26.0,60,0.00,,,0.00,weatherlink.com 1.10,2015-03-02 17:03:00,
2015-03-02 12:18:00,38.9,24.0,30.26,WNW,299,16.0,23.0,56,0.00,,,0.00,weatherlink.com 1.10,2015-03-02 17:18:00,
2015-03-02 12:33:00,39.1,23.0,30.26,WNW,300,18.0,25.0,53,0.00,,,0.00,weatherlink.com 1.10,2015-03-02 17:33:00,
2015-03-02 12:48:00,38.7,26.0,30.25,NW,305,16.0,23.0,60,0.00,,,0.00,weatherlink.com 1.10,2015-03-02 17:48:00,
2015-03-02 13:03:00,38.5,25.0,30.25,WNW,300,19.0,25.0,59,0.01,,,0.01,weatherlink.com 1.10,2015-03-02 18:03:00,
2015-03-02 13:18:00,38.7,25.0,30.25,NW,305,14.0,23.0,58,0.01,,,0.01,weatherlink.com 1.10,2015-03-02 18:18:00,
2015-03-02 13:33:00,38.9,25.0,30.25,NNW,347,14.0,17.0,57,0.01,,,0.01,weatherlink.com 1.10,2015-03-02 18:33:00,
2015-03-02 13:49:00,38.8,25.0,30.25,NW,325,14.0,18.0,59,0.01,,,0.01,weatherlink.com 1.10,2015-03-02 18:49:00,
2015-03-02 14:04:00,37.5,25.0,30.24,NW,310,14.0,18.0,62,0.00,,,0.01,weatherlink.com 1.10,2015-03-02 19:04:00,
2015-03-02 14:18:00,37.9,24.0,30.25,NW,325,15.0,20.0,58,0.00,,,0.01,weatherlink.com 1.10,2015-03-02 19:18:00,
2015-03-02 14:33:00,38.5,23.0,30.26,NNW,334,11.0,17.0,54,0.00,,,0.01,weatherlink.com 1.10,2015-03-02 19:33:00,
2015-03-02 14:48:00,38.3,23.0,30.26,NW,325,17.0,20.0,55,0.00,,,0.01,weatherlink.com 1.10,2015-03-02 19:48:00,
2015-03-02 15:03:00,38.1,23.0,30.25,NW,315,18.0,22.0,54,0.00,,,0.01,weatherlink.com 1.10,2015-03-02 20:03:00,
2015-03-02 15:18:00,38.0,23.0,30.26,NW,316,11.0,18.0,56,0.00,,,0.01,weatherlink.com 1.10,2015-03-02 20:18:00,
2015-03-02 15:33:00,38.2,23.0,30.27,NW,321,13.0,18.0,54,0.00,,,0.01,weatherlink.com 1.10,2015-03-02 20:33:00,
2015-03-02 15:49:00,38.4,23.0,30.27,NW,321,11.0,16.0,54,0.00,,,0.01,weatherlink.com 1.10,2015-03-02 20:49:00,
2015-03-02 16:04:00,38.4,22.0,30.27,NW,317,17.0,19.0,51,0.00,,,0.01,weatherlink.com 1.10,2015-03-02 21:04:00,
2015-03-02 16:19:00,38.3,23.0,30.28,WNW,301,13.0,16.0,55,0.00,,,0.01,weatherlink.com 1.10,2015-03-02 21:19:00,
2015-03-02 16:34:00,38.6,22.0,30.27,NW,304,14.0,19.0,52,0.00,,,0.01,weatherlink.com 1.10,2015-03-02 21:34:00,
2015-03-02 16:49:00,38.2,23.0,30.28,NW,310,12.0,17.0,54,0.00,,,0.01,weatherlink.com 1.10,2015-03-02 21:49:00,
2015-03-02 17:04:00,38.0,23.0,30.29,WNW,300,10.0,15.0,56,0.00,,,0.01,weatherlink.com 1.10,2015-03-02 22:04:00,
2015-03-02 17:19:00,37.6,23.0,30.29,NW,309,10.0,15.0,56,0.00,,,0.01,weatherlink.com 1.10,2015-03-02 22:19:00,
2015-03-02 17:34:00,36.9,23.0,30.30,NW,309,9.0,15.0,58,0.00,,,0.01,weatherlink.com 1.10,2015-03-02 22:34:00,
2015-03-02 17:49:00,36.2,24.0,30.31,WNW,297,11.0,11.0,61,0.00,,,0.01,weatherlink.com 1.10,2015-03-02 22:49:00,
2015-03-02 18:04:00,35.1,24.0,30.31,NW,311,9.0,11.0,65,0.00,,,0.01,weatherlink.com 1.10,2015-03-02 23:04:00,
2015-03-02 18:19:00,35.0,24.0,30.33,NW,309,6.0,11.0,64,0.00,,,0.01,weatherlink.com 1.10,2015-03-02 23:19:00,
2015-03-02 18:34:00,34.6,24.0,30.34,West,280,4.0,5.0,65,0.00,,,0.01,weatherlink.com 1.10,2015-03-02 23:34:00,
2015-03-02 18:49:00,35.0,22.0,30.34,NW,307,12.0,16.0,60,0.00,,,0.01,weatherlink.com 1.10,2015-03-02 23:49:00,